Weather History for Geneva, Switzerland

Change the Weather History Date:

Sunday, December 29, 2013

  Actual Average Record
Temperature  
Mean Temperature 37 °F -  
Max Temperature 45 °F 38 °F 51 °F (2007)
Min Temperature 29 °F 28 °F 17 °F (2005)
Degree Days  
Heating Degree Days 28    
Moisture  
Dew Point 34 °F    
Average Humidity 91    
Maximum Humidity 100    
Minimum Humidity 58    
Precipitation  
Precipitation 0.04 in 0.10 in - ()
Sea Level Pressure  
Sea Level Pressure 30.18 in    
Wind  
Wind Speed 2 mph ()    
Max Wind Speed 13 mph    
Max Gust Speed -    
Visibility 6.5 miles    
Events Fog , Rain    
Averages and records for this station are not official NWS values.
T = Trace of Precipitation, MM = Missing Value Source: Averaged Metar Reports

Daily Weather History Graph

Daily Weather History Graph

Search for Another Location

Airport:

Trip Planner

Search our weather history database for the weather conditions in past years. The results will help you decide how hot, cold, wet, or windy it might be!

Date:

Astronomy

Dec. 29, 2013 Rise Set
Actual Time 8:18 AM CET 4:57 PM CET
Civil Twilight 7:43 AM CET 5:31 PM CET
Nautical Twilight 7:05 AM CET 6:10 PM CET
Astronomical Twilight 6:28 AM CET 6:46 PM CET
Moon 4:38 AM CET (12/29) 2:26 PM CET (12/29)
Length of Visible Light 9h 48m
Length of Day
8h 39m
Waning Crescent, 13% of the Moon is Illuminated
Dec 29
Waning Crescent
Jan 1
New
Jan 8
First Quarter
Jan 16
Full
Jan 24
Last Quarter

Hourly Weather History & Observations

Time (CET) Temp. Windchill Dew Point Humidity Pressure Visibility Wind Dir Wind Speed Gust Speed Precip Events Conditions
12:00 AM 35 °F - 35 °F 97% 30.04 in - WNW 1.2 mph - -  
12:20 AM 33.8 °F - 33.8 °F 100% 29.98 in 6.2 mi Variable 1.2 mph - N/A Fog Shallow Fog
12:50 AM 33.8 °F - 33.8 °F 100% 29.98 in 6.2 mi Calm Calm - N/A Fog Shallow Fog
1:00 AM 33 °F - 33 °F 97% 30.06 in 31 mi SSW 2.3 mph - - Fog Patches of Fog
1:20 AM 32.0 °F - 32.0 °F 100% 29.98 in 6.2 mi Calm Calm - N/A Fog Shallow Fog
1:50 AM 32.0 °F - 32.0 °F 100% 30.01 in 6.2 mi Calm Calm - N/A Fog Shallow Fog
2:00 AM 33 °F - 31 °F 92% 30.06 in - NW 4.6 mph - -  
2:50 AM 32.0 °F - 32.0 °F 100% 30.01 in 6.2 mi Calm Calm - N/A   Partly Cloudy
3:00 AM 32 °F - 31 °F 94% 30.08 in - WNW 3.5 mph - -  
3:20 AM 32.0 °F - 32.0 °F 100% 30.01 in 6.2 mi Variable 2.3 mph - N/A   Partly Cloudy
3:50 AM 32.0 °F - 32.0 °F 100% 30.04 in 6.2 mi Variable 2.3 mph - N/A   Partly Cloudy
4:00 AM 32 °F - 31 °F 94% 30.09 in 31 mi NNE 2.3 mph - -   Scattered Clouds
4:20 AM 32.0 °F - 32.0 °F 100% 30.04 in 6.2 mi Calm Calm - N/A   Partly Cloudy
4:50 AM 30.2 °F - 30.2 °F 100% 30.04 in 6.2 mi Calm Calm - N/A Fog Shallow Fog
5:00 AM 30 °F - 29 °F 96% 30.12 in - North 1.2 mph - -  
5:20 AM 30.2 °F - 30.2 °F 100% 30.04 in 6.2 mi Calm Calm - N/A Fog Shallow Fog
5:50 AM 30.2 °F - 30.2 °F 100% 30.04 in 6.2 mi Calm Calm - N/A Fog Shallow Fog
6:00 AM 31 °F - 30 °F 96% 30.13 in - SSW 3.5 mph - -  
6:20 AM 30.2 °F - 30.2 °F 100% 30.06 in 6.2 mi Variable 2.3 mph - N/A   Partly Cloudy
6:50 AM 30.2 °F - 30.2 °F 100% 30.06 in 6.2 mi Variable 1.2 mph - N/A   Partly Cloudy
7:00 AM 30 °F - 29 °F 95% 30.16 in 31 mi WSW 2.3 mph - -   Scattered Clouds
7:20 AM 30.2 °F - 30.2 °F 100% 30.09 in 6.2 mi Variable 2.3 mph - N/A   Scattered Clouds
7:50 AM 32.0 °F - 32.0 °F 100% 30.09 in 6.2 mi Variable 2.3 mph - N/A   Scattered Clouds
8:00 AM 37 °F - 33 °F 82% 30.15 in - West 3.5 mph - -  
8:20 AM 33.8 °F - 33.8 °F 100% 30.09 in 6.2 mi Variable 2.3 mph - N/A   Scattered Clouds
8:50 AM 32.0 °F - 32.0 °F 100% 30.12 in 5.0 mi Calm Calm - N/A Fog Fog
9:00 AM 31 °F - 31 °F 97% 30.19 in - SW 2.3 mph - -  
9:20 AM 32.0 °F - 32.0 °F 100% 30.12 in 6.2 mi Calm Calm - N/A Fog Patches of Fog
9:50 AM 35.6 °F - 35.6 °F 100% 30.15 in 6.2 mi Variable 1.2 mph - N/A Rain Light Rain Showers
10:00 AM 37 °F - 35 °F 88% 30.21 in 7 mi South 3.5 mph - - Rain Light Rain Showers
10:20 AM 37.4 °F - 37.4 °F 100% 30.15 in 6.2 mi Calm Calm - N/A   Mostly Cloudy
10:50 AM 39.2 °F - 39.2 °F 100% 30.15 in 6.2 mi Variable 1.2 mph - N/A   Mostly Cloudy
11:00 AM 40 °F - 36 °F 82% 30.22 in - West 3.5 mph - -  
11:20 AM 39.2 °F - 39.2 °F 100% 30.15 in 6.2 mi Variable 2.3 mph - N/A   Scattered Clouds
11:50 AM 42.8 °F 41.1 °F 37.4 °F 81% 30.15 in 6.2 mi SSW 3.5 mph - N/A   Partly Cloudy
12:00 PM 42 °F - 36 °F 74% 30.20 in - SW 3.5 mph - -  
12:20 PM 44.6 °F 40.7 °F 37.4 °F 76% 30.15 in 6.2 mi SSW 6.9 mph - N/A   Partly Cloudy
12:50 PM 46.4 °F 42.4 °F 39.2 °F 76% 30.15 in 6.2 mi SSW 8.1 mph - N/A   Mostly Cloudy
1:00 PM 44 °F - 37 °F 69% 30.19 in 31 mi SSW 8.1 mph - -   Partly Cloudy
1:20 PM 44.6 °F 39.2 °F 37.4 °F 76% 30.15 in 6.2 mi SSW 10.4 mph - N/A   Scattered Clouds
1:50 PM 44.6 °F 39.7 °F 35.6 °F 71% 30.15 in 6.2 mi SSW 9.2 mph - N/A   Mostly Cloudy
2:00 PM 45 °F - 35 °F 58% 30.20 in - SW 10.4 mph - -  
2:20 PM 44.6 °F 38.8 °F 35.6 °F 71% 30.15 in 6.2 mi SW 11.5 mph - N/A   Mostly Cloudy
2:50 PM 42.8 °F 36.2 °F 35.6 °F 76% 30.18 in 6.2 mi SW 12.7 mph - N/A   Mostly Cloudy
3:00 PM 42 °F - 36 °F 74% 30.23 in - SW 11.5 mph - -  
3:20 PM 42.8 °F 38.6 °F 37.4 °F 81% 30.18 in 6.2 mi SSW 6.9 mph - N/A   Mostly Cloudy
3:50 PM 44.6 °F 42.2 °F 37.4 °F 76% 30.18 in 6.2 mi SW 4.6 mph - N/A   Scattered Clouds
4:00 PM 43 °F - 37 °F 71% 30.24 in 28 mi WSW 5.8 mph - - Rain Light Rain Showers
4:20 PM 42.8 °F 40.1 °F 37.4 °F 81% 30.21 in 6.2 mi WSW 4.6 mph - N/A   Scattered Clouds
4:50 PM 41.0 °F 36.4 °F 37.4 °F 87% 30.21 in 6.2 mi WSW 6.9 mph - N/A   Scattered Clouds
5:00 PM 42 °F - 36 °F 72% 30.27 in - SW 5.8 mph - -  
5:20 PM 41.0 °F 38.0 °F 37.4 °F 87% 30.21 in 6.2 mi WSW 4.6 mph - N/A   Mostly Cloudy
5:50 PM 41.0 °F 39.0 °F 37.4 °F 87% 30.24 in 6.2 mi West 3.5 mph - N/A   Mostly Cloudy
6:00 PM 41 °F - 36 °F 75% 30.30 in - WNW 3.5 mph - -  
6:20 PM 41.0 °F 39.0 °F 37.4 °F 87% 30.27 in 6.2 mi West 3.5 mph - N/A   Mostly Cloudy
6:50 PM 39.2 °F 37.0 °F 35.6 °F 87% 30.27 in 6.2 mi West 3.5 mph - N/A Rain Light Rain Showers
7:00 PM 39 °F - 37 °F 90% 30.34 in 7 mi NE 1.2 mph - - Rain Light Rain
7:20 PM 39.2 °F - 37.4 °F 93% 30.30 in 6.2 mi Variable 2.3 mph - N/A   Mostly Cloudy
7:50 PM 37.4 °F - 35.6 °F 93% 30.30 in 6.2 mi Calm Calm - N/A   Scattered Clouds
8:00 PM 37 °F - 36 °F 92% 30.36 in - West 1.2 mph - -  
8:20 PM 35.6 °F - 33.8 °F 93% 30.30 in 6.2 mi Variable 1.2 mph - N/A   Scattered Clouds
8:50 PM 35.6 °F - 35.6 °F 100% 30.30 in 6.2 mi Variable 1.2 mph - N/A   Scattered Clouds
9:00 PM 35 °F - 34 °F 92% 30.38 in - NE 2.3 mph - -  
9:20 PM 33.8 °F - 33.8 °F 100% 30.33 in 6.2 mi Variable 1.2 mph - N/A   Partly Cloudy
9:50 PM 33.8 °F - 33.8 °F 100% 30.33 in 6.2 mi Calm Calm - N/A   Partly Cloudy
10:00 PM 34 °F - 33 °F 92% 30.39 in 19 mi NW 3.5 mph - -   Partly Cloudy
10:20 PM 33.8 °F - 33.8 °F 100% 30.33 in - Variable 1.2 mph - N/A   Clear
10:50 PM 32.0 °F - 32.0 °F 100% 30.33 in - Calm Calm - N/A   Clear
11:00 PM 32 °F - 31 °F 95% 30.40 in - SE 1.2 mph - -  
11:20 PM 32.0 °F - 32.0 °F 100% 30.33 in - Calm Calm - N/A   Clear
11:50 PM 30.2 °F - 30.2 °F 100% 30.33 in - Calm Calm - N/A   Clear